Regional Weather Roundup
Issued by NWS

Home | Current Version | Previous Version | Graphics & Text | Print | Product List | Glossary On
Versions: 1 2 3 4 5 6 7 8 9 10 11 12 13 14 15 16 17 18 19 20 21 22 23 24 25 26 27 28 29 30 31 32 33 34 35 36 37 38 39 40 41 42 43 44 45 46 47 48 49 50
945
ASUS43 KMPX 100310
RWRMN
WEATHER ROUNDUP FOR MINNESOTA
NATIONAL WEATHER SERVICE TWIN CITIES/CHANHASSEN MN
900 PM CST FRI DEC 09 2016


NOTE: "FAIR" INDICATES FEW OR NO CLOUDS BELOW 12,000 FEET WITH NO
SIGNIFICANT WEATHER AND/OR OBSTRUCTIONS TO VISIBILITY. N/A MEANS
CURRENT SKY AND/OR WEATHER CONDITIONS ARE NOT AVAILABLE.

MNZ060>063-068>070-100400-
   Twin Cities Metro

CITY           SKY/WX    TMP DP  RH WIND       PRES   REMARKS
TWIN CITIES    FLURRIES  13   4  67 NW12      30.49F WCI  -1
ST PAUL        LGT SNOW  14   6  70 NW9       30.51F WCI   2
CRYSTAL        CLOUDY    12   2  64 NW8       30.48F WCI   0
BLAINE         CLOUDY    12   5  73 W9        30.48S WCI   0
LAKEVILLE      CLEAR      7   3  85 W8        30.49S WCI  -6
EDEN PRAIRIE   CLOUDY    11   3  70 W10       30.49F WCI  -3
SOUTH ST PAUL  CLOUDY    15   6  68 W8        30.49S WCI   3
LAKE ELMO      CLOUDY    14   7  73 W12       30.49S WCI   0
$$
MNZ001>005-007-008-013>017-022>024-027-028-100400-
   Northwest Minnesota

CITY           SKY/WX    TMP DP  RH WIND       PRES   REMARKS
BEMIDJI        CLOUDY     0  -5  78 NW7       30.45F WCI -13
HALLOCK        CLOUDY     0  -6  78 NW10      30.54S WCI -17
ROSEAU         MOCLDY    -4  -9  77 W6        30.49F WCI -16
WARROAD        MOCLDY    -4  -8  84 W5        30.48S WCI -15
THIEF RVR FALL FLURRIES -10 -14  82 NW3       30.51F
CROOKSTON      CLOUDY    -9 -15  77 CALM      30.55F
FOSSTON        CLOUDY    -6  -9  84 NW6       30.49S WCI -18
DETROIT LAKES  CLOUDY     0  -4  85 NW8       30.49S WCI -15
MOORHEAD       MOCLDY    -4  -9  77 NW9       30.56S WCI -20
PARK RAPIDS    CLOUDY     2  -6  69 NW8       30.44F WCI -12
$$
MNZ006-009>011-018-025>026-100400-
   North Central Minnesota

CITY           SKY/WX    TMP DP  RH WIND       PRES   REMARKS
BAUDETTE       CLOUDY     0  -7  72 W10       30.44S WCI -16
FLAG ISLAND    CLEAR     -2  -6  84 W13       30.45F WCI -21
INTL FALLS     MOCLDY    -3  -8  79 W8        30.43F WCI -18
WASKISH        CLOUDY     0  -6  78 NW8       30.47S WCI -15
BIG FORK       CLOUDY     3  -2  78 CALM      30.43F
LONGVILLE      CLOUDY     5  -2  72 CALM      30.44F
GRAND RAPIDS   FLURRIES   6  -1  73 NW10      30.44F WCI  -9
CRANE LAKE     CLOUDY     3  -2  78 W6        30.44S WCI  -8
ORR            CLOUDY     1  -6  71 NW10      30.40R WCI -14
COOK           CLOUDY     3  -4  72 W9        30.42S WCI -11
$$
MNZ012-019>021-037-100400-
   Northeast Minnesota

CITY           SKY/WX    TMP DP  RH WIND       PRES   REMARKS
DULUTH         CLOUDY     5   0  79 NW5       30.40F WCI  -4
ELY            CLOUDY     3  -4  72 W8        30.39S WCI -10
HIBBING        LGT SNOW   4  -1  80 NW9       30.41F WCI -10
EVELETH        MOCLDY     6  -1  71 NW8       30.41S WCI  -7
DULUTH HARBOR  CLOUDY    12   1  62 CALM      30.49F
TWO HARBORS    CLEAR      1  -4  78 CALM      30.41F
SILVER BAY     CLOUDY     7  -2  66 NW5       30.40F WCI  -2
GRAND MARAIS     N/A     12   4  70 NW5       30.41F WCI   4
G MARAIS ARPRT CLOUDY     3  -2  78 W7        30.30S WCI  -9
$$
MNZ029>031-032-039>041-046>048-054>057-064-100400-
   West Central Minnesota

CITY           SKY/WX    TMP DP  RH WIND       PRES   REMARKS
FERGUS FALLS   CLOUDY     1  -4  78 NW10      30.57F WCI -14
WHEATON        CLEAR      1  -2  85 W6        30.57S WCI -10
MORRIS         CLEAR      0  -6  78 W3        30.51F
ALEXANDRIA     CLEAR     -1  -5  82 NW8       30.48F WCI -15
ELBOW LAKE     FAIR      -1  -4  87 W5        30.52S WCI -11
WADENA         PTCLDY    -2  -6  84 W5        30.47S WCI -12
GLENWOOD       CLEAR      0  -4  85 NW9       30.49S WCI -16
APPLETON       CLEAR      5   0  78 N5        30.54S WCI  -4
BENSON         CLEAR      1  -4  78 N5        30.52F WCI  -8
ORTONVILLE     MOCLDY     3  -2  78 CALM      30.53F
MADISON        CLOUDY     9   1  72 NW8       30.54S WCI  -4
WILLMAR        MOCLDY     5   0  78 CALM      30.52S
$$
MNZ033>034-036-042>043-049>051-058-059-100400-
   Central Minnesota

CITY           SKY/WX    TMP DP  RH WIND       PRES   REMARKS
ST CLOUD       CLOUDY     6   0  76 NW9       30.49S WCI  -8
PAYNESVILLE    CLEAR      2  -2  82 W6        30.50S WCI  -9
AITKIN         MIX PCPN  10   1  67 W5        30.43S WCI   2
PINE RIVER     CLOUDY     5  -2  72 NW5       30.47S WCI  -4
BRAINERD       CLOUDY     7  -2  66 NW9       30.45F WCI  -7
LONG PRAIRIE   FAIR       1  -4  78 SW6       30.48S WCI -10
LITTLE FALLS   CLOUDY     7   0  72 W5        30.48S WCI  -2
LITCHFIELD     CLEAR      7   0  72 NW8       30.50S WCI  -6
BUFFALO        MOCLDY     9   1  72 W8        30.51S WCI  -4
MAPLE LAKE     MOCLDY     9   3  78 W7        30.50F WCI  -3
HUTCHINSON     CLOUDY     8   3  78 NW10      30.51S WCI  -6
$$
MNZ037-044-045-052-053-100400-
   East Central Minnesota

CITY           SKY/WX    TMP DP  RH WIND       PRES   REMARKS
PRINCETON      CLOUDY    10   3  72 W7        30.47S WCI   0
MORA           CLOUDY    12   3  67 W7        30.47F WCI   2
CAMBRIDGE      FLURRIES  14   3  62 W5        30.46S WCI   6
RUSH CITY      CLOUDY    12   3  67 NW6       30.47S WCI   3
MOOSE LAKE     CLOUDY    10   1  67 NW5       30.43F WCI   2
HINCKLEY       CLOUDY    12   5  73 CALM      30.45F
CLOQUET        FLURRIES   9   0  66 NW5       30.41F WCI   0
MCGREGOR       CLOUDY    10   3  72 NW5       30.44S WCI   2
$$
MNZ071>073-080-081-089-090-097-098-100400-
   Southwest Minnesota

CITY           SKY/WX    TMP DP  RH WIND       PRES   REMARKS
MONTEVIDEO     CLOUDY     7   1  78 N9        30.55S WCI  -7
GRANITE FALLS  CLOUDY     8   2  75 NW7       30.55S WCI  -3
CANBY          CLOUDY     7   2  80 CALM      30.54S
MARSHALL       MOCLDY     6   2  83 N7        30.53R WCI  -6
REDWOOD FALLS  CLOUDY     7   0  73 NW9       30.53R WCI  -7
OLIVIA         CLEAR      9   1  72 NW7       30.51S WCI  -3
PIPESTONE      LGT SNOW  10   7  85 N3        30.46R
WINDOM         FLURRIES   9   7  92 MISG      30.48S
WORTHINGTON    FLURRIES  12   9  87 NW6       30.47R WCI   3
JACKSON        CLOUDY    12   9  85 VRB5      30.47S WCI   4
TRACY          CLOUDY     8   5  85 N8        30.50S WCI  -4
SLAYTON        FLURRIES   7   4  87 N9        30.47S WCI  -7
$$
MNZ065>067-074>077-082>085-091>093-100400-
   South Central Minnesota

CITY           SKY/WX    TMP DP  RH WIND       PRES   REMARKS
MANKATO        FLURRIES  10   7  87 NW8       30.51S WCI  -2
NEW ULM        LGT SNOW   9   5  85 NW9       30.51S WCI  -5
ST JAMES       LGT SNOW  10   9  92 NW6       30.52R WCI   1
FAIRMONT       FLURRIES  12   9  87 N7        30.50S WCI   1
GLENCOE        CLOUDY    10   6  82 W9        30.50S WCI  -3
FARIBAULT      MOCLDY     9   5  85 W7        30.49F WCI  -3
OWATONNA       FLURRIES  10   7  85 W6        30.48S WCI   1
WASECA         FLURRIES  12  10  92 W6        30.50S WCI   3
ALBERT LEA     FLURRIES  18  14  86 W5        30.47S WCI  11
$$
MNZ078>079-086>088-094>096-100400-
   Southeast Minnesota

CITY           SKY/WX    TMP DP  RH WIND       PRES   REMARKS
ROCHESTER      MOCLDY    13  10  88 W9        30.45F WCI   1
RED WING       CLOUDY    14   7  73 W8        30.49S WCI   3
STANTON        CLEAR     11   5  78 W6        30.49S WCI   1
DODGE CENTER   FLURRIES  12   9  85 W6        30.45F WCI   3
WINONA         PTCLDY    18  12  79 W3        30.50F
AUSTIN         LGT SNOW  14  10  85 NW8       30.47S WCI   3
PRESTON        PTCLDY    13   9  86 W6        30.46F WCI   3
$$
ABBREVIATIONS USED IN REMARKS
   TC - TEMPERATURES IN CELSIUS
  WCI - WIND CHILL INDEX
   HX - HEAT INDEX
  VSB - VISIBILITY
$$




USA.gov is the U.S. government's official web portal to all federal, state and local government web resources and services.